Regional Weather Roundup
Issued by NWS

Home | Current Version | Previous Version | Text Only | Print | Product List | Glossary Off
Versions: 1 2 3 4 5 6 7 8 9 10 11 12 13 14 15 16 17 18 19 20 21 22 23 24 25 26 27 28 29 30 31 32 33 34 35 36 37 38 39 40 41 42 43 44 45 46 47 48 49 50

000
ASUS43 KDTX 261410
RWRMI
MICHIGAN HOURLY REGIONAL WEATHER ROUNDUP
NATIONAL WEATHER SERVICE DETROIT/PONTIAC MI
1000 AM EDT THU MAY 26 2016

NOTE: "FAIR" INDICATES FEW OR NO CLOUDS BELOW 12,000 FEET WITH NO
SIGNIFICANT WEATHER AND/OR OBSTRUCTION TO VISIBILITY.

MIZ047>049-052>055-059>063-066>070-074>076-081>083-261500-
SOUTHEAST LOWER MICHIGAN

CITY           SKY/WX    TMP DP  RH WIND       PRES   REMARKS
ADRIAN         MOSUNNY   75  64  68 SW15      29.98F
ALMA           PTSUNNY   71  66  84 SW13G21   29.94F
ANN ARBOR      SUNNY     75  65  70 S13       29.97F
BAD AXE        CLOUDY    69  63  81 S8        29.96F
CARO           MOSUNNY   74  63  68 S9G16     29.94F
DETROIT CITY   SUNNY     75  64  68 SW12      29.96F
DETROIT        MOSUNNY   75  65  70 S13       29.98F
FLINT          SUNNY     78  64  61 SW12      29.95F
GROSSE ILE     SUNNY     70  64  83 S8        29.97F
HILLSDALE      MOSUNNY   72  64  74 SW8       29.99F
HOWELL         SUNNY     73  65  74 SW12      29.97F

CITY           SKY/WX    TMP DP  RH WIND       PRES   REMARKS
JACKSON        SUNNY     75  65  70 SW13G18   29.98S
LAMBERTVILLE   SUNNY     76  65  68 SW5       29.98F
LANSING        MOSUNNY   73  66  78 S16       29.96F
LAPEER         FAIR      76  60  58 SW8       29.97F
MASON          SUNNY     73  65  76 SW8       29.97F
MONROE         MOSUNNY   75  67  76 SW7       29.97F
MT. CLEMENS    MOSUNNY   76  66  71 SE9       29.96F
PONTIAC        MOSUNNY   75  63  66 S8        29.97F
PORT HOPE        N/A     69  62  78 CALM      29.94F
PORT HURON     SUNNY     73  64  73 S9        29.97F
TRI CITIES     SUNNY     76  64  66 SW16G23   29.94F
MIDLAND        FAIR      73  65  75 SW12      29.92F
TROY           SUNNY     76  65  67 SW5       29.98F
SAGINAW HB     SUNNY     73  63  68 S12       29.93F
$$
MIZ043>046-050>051-056>058-064>065-071>073-077>080-261500-
SOUTHWEST LOWER MICHIGAN

CITY           SKY/WX    TMP DP  RH WIND       PRES   REMARKS
BATTLE CREEK   CLOUDY    72  67  84 SW13      29.98S
BENTON HARBOR  CLOUDY    74  67  78 SW10      29.96R
BIG RAPIDS     CLOUDY    67  66  97 SW7       29.94R FOG
COLDWATER      PTSUNNY   73  65  77 SW9       29.98S
FREMONT        CLOUDY    69  69 100 SW12      29.93R
HOLLAND        PTSUNNY   73  67  81 SW17G24   29.95R
GRAND RAPIDS   PTSUNNY   75  67  76 SW16      29.95S
IONIA          CLOUDY    72  65  80 SW12      29.94S
KALAMAZOO      CLOUDY    73  66  78 SW12      29.97S
LUDINGTON      CLOUDY    66  64  93 S12G20    29.91R FOG
MARSHALL       PTSUNNY   73  66  79 SW9       29.97S
MOUNT PLEASANT CLOUDY    70  66  88 SW9       29.93S
MUSKEGON       PTSUNNY   70  64  81 S18       29.93S
SOUTH HAVEN    PTSUNNY   73  68  85 SW9       29.96R
$$
MIZ016>042-261500-
NORTHERN LOWER MICHIGAN

CITY           SKY/WX    TMP DP  RH WIND       PRES   REMARKS
ALPENA         CLOUDY    69  59  70 SE8       29.92F
BEAVER ISLAND  CLOUDY    60  59  97 SW13G20   29.87S FOG
BELLAIRE       CLOUDY    71  64  76 SW6       29.89S
CADILLAC       CLOUDY    66  64  93 SW8       29.93R FOG
CHARLEVOIX     CLOUDY    68  64  86 SW8       29.91S
FRANKFORT      CLOUDY    64  62  92 S7        29.90R FOG
GAYLORD        CLOUDY    68  62  81 SW13      29.91S
GRAYLING       CLOUDY    68  64  86 SW9       29.93S
HARBOR SPRINGS CLOUDY    64  62  91 CALM      29.88F
HOUGHTON LAKE  CLOUDY    67  63  87 SW6       29.93S
MANISTEE       CLOUDY    70  63  78 S12G17    29.91S
OSCODA         CLOUDY    71  61  69 SW8G20    29.93F
PELLSTON       CLOUDY    63  59  87 S6        29.89S
ROGERS CITY    PTSUNNY   69  58  69 S6        29.91S
TRAVERSE CITY  PTSUNNY   71  64  78 SW8       29.87S
$$
MIZ007>008-015-261500-
EASTERN UPPER MICHIGAN

CITY           SKY/WX    TMP DP  RH WIND       PRES   REMARKS
KINROSS          N/A     59  55  88 SE15      29.88F
MACKINAC ISLAN CLOUDY    53  53  99 SE7       29.88F
NEWBERRY       CLOUDY    58  57  97 S7        29.86S FOG
S. S. MARIE    CLOUDY    61  55  81 SE10G17   29.88F
MUNISING         N/A     63  60  90 S9        29.82S
$$
MIZ004>006-011>014-085-261500-
CENTRAL UPPER MICHIGAN

CITY           SKY/WX    TMP DP  RH WIND       PRES   REMARKS
MANISTIQUE     FOG       56  55  97 S6        29.85R VSB 1/2
ESCANABA       PTSUNNY   63  57  82 S9        29.84S
MENOMINEE      CLOUDY    62  61  96 S6        29.86F FOG
SAWYER-GWINN   PTSUNNY   63  59  88 W6        29.83S
$$
MIZ001>003-009>011-084-261500-
WESTERN UPPER MICHIGAN

CITY           SKY/WX    TMP DP  RH WIND       PRES   REMARKS
IRON MOUNTAIN  CLOUDY    67  61  81 W7        29.83R
HOUGHTON       FOG       56  54  93 W7        29.81R VSB 1/2
COPPER HARBOR    N/A     46  45  96 CALM      29.79F
IRONWOOD       CLOUDY    63  61  94 CALM      29.78F
$$

ABBREVIATIONS USED IN REMARKS
   TC - TEMPERATURE IN CELSIUS
  WCI - WIND CHILL INDEX
   HX - HEAT INDEX
  VSB - VISIBILITY





USA.gov is the U.S. government's official web portal to all federal, state and local government web resources and services.